Regional Weather Roundup
Issued by NWS

Home | Current Version | Previous Version | Text Only | Print | Product List | Glossary Off
Versions: 1 2 3 4 5 6 7 8 9 10 11 12 13 14 15 16 17 18 19 20 21 22 23 24 25 26 27 28 29 30 31 32 33 34 35 36 37 38 39 40 41 42 43 44 45 46 47 48 49 50

533
ASUS43 KBIS 090402
RWRND

NORTH DAKOTA REGIONAL WEATHER ROUNDUP
NATIONAL WEATHER SERVICE BISMARCK ND
1000 PM CST MON FEB 08 2016

NOTE: "FAIR" INDICATES FEW OR NO CLOUDS BELOW 12,000 FEET WITH NO
SIGNIFICANT WEATHER AND/OR OBSTRUCTIONS TO VISIBILITY.


NDZ001>003-009>011-017-090500-
NORTHWEST NORTH DAKOTA

CITY           SKY/WX    TMP DP  RH WIND       PRES   REMARKS
WILLISTON      CLOUDY    31  21  66 CALM      30.25F
MINOT          CLOUDY    24  15  68 NW9       30.27S WCI  14
MINOT AFB      CLOUDY    23  18  81 CALM      30.28R
$$

NDZ018>021-031>035-040>046-090500-
SOUTHWEST NORTH DAKOTA

CITY           SKY/WX    TMP DP  RH WIND       PRES   REMARKS
BISMARCK       PTCLDY    26  15  63 N10       30.27R WCI  16
DICKINSON      CLOUDY    29  16  58 NW7       30.23R
GARRISON         N/A     18  14  84 NW6       30.25F WCI  10
HETTINGER ARPT CLOUDY    30  13  49 N7        30.25R
$$

NDZ004>008-012>016-024-026-027-054-090500-
NORTHEAST NORTH DAKOTA

CITY           SKY/WX    TMP DP  RH WIND       PRES   REMARKS
GRAND FORKS    PTCLDY     8   1  73 N14       30.25F WCI  -8
GRND FRKS AFB  CLEAR      8   1  73 N14       30.26S WCI  -9
DEVILS LAKE    CLEAR      7   4  87 N7        30.25S WCI  -5
$$

NDZ022-023-025-028>030-036>039-047>053-090500-
SOUTHEAST NORTH DAKOTA

CITY           SKY/WX    TMP DP  RH WIND       PRES   REMARKS
FARGO          CLEAR      9   1  70 N22       30.21F WCI -11
JAMESTOWN      CLEAR     12   8  84 N8        30.21S WCI   0
$$





USA.gov is the U.S. government's official web portal to all federal, state and local government web resources and services.